This is the latest recevied weather packets stored in our database for station/object DG7FDL-7. If no packets are shown the sender has not sent any weather packets the latest 10 day(s).
| Time | Temp. | Humidity | Pressure | Rain* | Wind** | Luminosity | Snow |
|---|---|---|---|---|---|---|---|
| 1788156294 | 60° F | 100% | 761.2 mmHg | - | - | - | - |
| 1788155394 | 60° F | 100% | 760.9 mmHg | - | - | - | - |
| 1788154493 | 61° F | 100% | 760.8 mmHg | - | - | - | - |
| 1788153593 | 60° F | 100% | 760.8 mmHg | - | - | - | - |
| 1788152693 | 60° F | 100% | 760.7 mmHg | - | - | - | - |
| 1788151793 | 60° F | 100% | 760.7 mmHg | - | - | - | - |
| 1788150893 | 61° F | 100% | 760.6 mmHg | - | - | - | - |
| 1788149993 | 62° F | 100% | 760.6 mmHg | - | - | - | - |
| 1788149093 | 62° F | 100% | 760.6 mmHg | - | - | - | - |
| 1788148192 | 60° F | 100% | 760.5 mmHg | - | - | - | - |
| 1788147292 | 61° F | 100% | 760.6 mmHg | - | - | - | - |
| 1788146392 | 59° F | 100% | 760.5 mmHg | - | - | - | - |
| 1788145492 | 62° F | 100% | 760.6 mmHg | - | - | - | - |
| 1788144592 | 61° F | 100% | 760.7 mmHg | - | - | - | - |
| 1788143692 | 60° F | 100% | 760.7 mmHg | - | - | - | - |
| 1788141892 | 62° F | 100% | 760.8 mmHg | - | - | - | - |
| 1788140992 | 61° F | 100% | 760.8 mmHg | - | - | - | - |
| 1788140092 | 62° F | 100% | 760.9 mmHg | - | - | - | - |
| 1788139191 | 62° F | 100% | 760.9 mmHg | - | - | - | - |
| 1788138291 | 63° F | 90% | 761.1 mmHg | - | - | - | - |
| 1788137391 | 62° F | 88% | 760.9 mmHg | - | - | - | - |
| 1788136491 | 61° F | 88% | 760.7 mmHg | - | - | - | - |
| 1788135591 | 63° F | 79% | 760.6 mmHg | - | - | - | - |
| 1788134691 | 63° F | 80% | 760.6 mmHg | - | - | - | - |
| 1788133791 | 61° F | 87% | 760.7 mmHg | - | - | - | - |
* Rain since midnight (hover to see other rain measurements)
** Current wind speed in m/s (hover to see current wind gust speed)